Regional Weather Roundup
Issued by NWS

Home | Current Version | Previous Version | Text Only | Print | Product List | Glossary Off
Versions: 1 2 3 4 5 6 7 8 9 10 11 12 13 14 15 16 17 18 19 20 21 22 23 24 25 26 27 28 29 30 31 32 33 34 35 36 37 38 39 40 41 42 43 44 45 46 47 48 49 50

000
ASUS43 KBIS 020520
RWRND

NORTH DAKOTA REGIONAL WEATHER ROUNDUP
NATIONAL WEATHER SERVICE BISMARCK ND
1200 AM CDT THU OCT 02 2014

NOTE: "FAIR" INDICATES FEW OR NO CLOUDS BELOW 12,000 FEET WITH NO
SIGNIFICANT WEATHER AND/OR OBSTRUCTIONS TO VISIBILITY.


NDZ001>003-009>011-017-020600-
NORTHWEST NORTH DAKOTA

CITY           SKY/WX    TMP DP  RH WIND       PRES   REMARKS
WILLISTON      PTCLDY    45  41  86 SW7       29.85S
MINOT          PTCLDY    51  45  79 SW12      29.80S
MINOT AFB      MOCLDY    50  50  99 W9        29.79F
$$

NDZ018>021-031>035-040>046-020600-
SOUTHWEST NORTH DAKOTA

CITY           SKY/WX    TMP DP  RH WIND       PRES   REMARKS
BISMARCK       MOCLDY    51  46  83 W7        29.87R
DICKINSON      PTCLDY    43  40  89 W8        29.89R
GARRISON         N/A     46  44  93 W7        29.84S
HETTINGER ARPT MOCLDY    42  39  89 NW5       29.93S
$$

NDZ004>008-012>016-024-026-027-054-020600-
NORTHEAST NORTH DAKOTA

CITY           SKY/WX    TMP DP  RH WIND       PRES   REMARKS
GRAND FORKS    CLOUDY    58  50  75 W8        29.75R
GRND FRKS AFB  CLOUDY    57  52  83 W10       29.77R
DEVILS LAKE    CLEAR     50  43  76 W9        29.78R
$$

NDZ022-023-025-028>030-036>039-047>053-020600-
SOUTHEAST NORTH DAKOTA

CITY           SKY/WX    TMP DP  RH WIND       PRES   REMARKS
FARGO          CLOUDY    59  50  72 W8        29.78S
JAMESTOWN      PTCLDY    50  47  89 W7        29.83R
$$




USA.gov is the U.S. government's official web portal to all federal, state and local government web resources and services.